| time (UTC) | temp C | wind direction | speed KPH | gust KPH | rain 1hr cm | rain 24hr cm | rain mn cm | humidity % | barometer mb |
| 20260505124503 | 16 | 218 | 0.0 | 8.0 | 0.00 | 0.00 | 0.00 | 85 | 1005.9 |
| 20260505123603 | 15 | 201 | 1.6 | 8.0 | 0.00 | 0.00 | 0.00 | 85 | 1005.7 |
| 20260505122703 | 15 | 153 | 1.6 | 12.9 | 0.00 | 0.00 | 0.00 | 86 | 1005.4 |
| 20260505121803 | 15 | 168 | 1.6 | 8.0 | 0.00 | 0.00 | 0.00 | 86 | 1004.6 |
| 20260505120924 | 15 | 150 | 1.6 | 16.1 | 0.00 | 0.00 | 0.00 | 85 | 1004.4 |
| 20260505120008 | 15 | 177 | 1.6 | 8.0 | 0.00 | 0.00 | 0.00 | 84 | 1004.8 |
| 20260505115408 | 15 | 173 | 1.6 | 8.0 | 0.00 | 0.00 | 0.00 | 85 | 1004.5 |
| 20260505114529 | 15 | 193 | 1.6 | 12.9 | 0.00 | 0.00 | 0.00 | 85 | 1004.3 |
| 20260505113608 | 15 | 170 | 1.6 | 12.9 | 0.00 | 0.00 | 0.00 | 84 | 1004.8 |
| 20260505112729 | 15 | 188 | 1.6 | 16.1 | 0.00 | 0.00 | 0.00 | 84 | 1004.6 |
| 20260505111808 | 15 | 189 | 0.0 | 8.0 | 0.00 | 0.00 | 0.00 | 82 | 1005.0 |
| 20260505110908 | 15 | 168 | 0.0 | 12.9 | 0.00 | 0.00 | 0.00 | 81 | 1005.2 |
| 20260505101807 | 16 | 67 | 0.0 | 3.2 | 0.00 | 0.00 | 0.00 | 75 | 1005.1 |
| 20260505100908 | 16 | 263 | 0.0 | 8.0 | 0.00 | 0.00 | 0.00 | 74 | 1005.2 |
| 20260505100008 | 16 | 197 | 0.0 | 3.2 | 0.00 | 0.00 | 0.00 | 75 | 1005.2 |
| 20260505095408 | 16 | 222 | 0.0 | 3.2 | 0.00 | 0.00 | 0.00 | 75 | 1004.8 |
| 20260505094508 | 16 | 233 | 0.0 | 3.2 | 0.00 | 0.00 | 0.00 | 74 | 1004.9 |
| 20260505093607 | 17 | 258 | 0.0 | 3.2 | 0.00 | 0.00 | 0.00 | 72 | 1004.6 |
| 20260505092707 | 17 | 224 | 0.0 | 8.0 | 0.00 | 0.00 | 0.00 | 71 | 1004.8 |
| 20260505091808 | 17 | 219 | 0.0 | 16.1 | 0.00 | 0.00 | 0.00 | 71 | 1004.6 |
| 20260505090908 | 17 | 184 | 1.6 | 16.1 | 0.00 | 0.00 | 0.00 | 70 | 1004.5 |
| 20260505090008 | 17 | 242 | 1.6 | 8.0 | 0.00 | 0.00 | 0.00 | 70 | 1004.6 |
| 20260505085407 | 17 | 238 | 1.6 | 12.9 | 0.00 | 0.00 | 0.00 | 69 | 1004.6 |
| 20260505084507 | 17 | 195 | 1.6 | 8.0 | 0.00 | 0.00 | 0.00 | 69 | 1004.3 |
| 20260505083607 | 17 | 203 | 3.2 | 20.9 | 0.00 | 0.00 | 0.00 | 69 | 1004.3 |
| 20260505082707 | 17 | 227 | 1.6 | 16.1 | 0.00 | 0.00 | 0.00 | 70 | 1003.8 |
| 20260505081807 | 17 | 203 | 1.6 | 8.0 | 0.00 | 0.00 | 0.00 | 70 | 1003.7 |
| 20260505080907 | 17 | 233 | 1.6 | 12.9 | 0.00 | 0.00 | 0.00 | 69 | 1003.9 |
| 20260505080008 | 17 | 175 | 1.6 | 12.9 | 0.00 | 0.00 | 0.00 | 71 | 1003.4 |
| 20260505075407 | 17 | 179 | 1.6 | 12.9 | 0.00 | 0.00 | 0.00 | 70 | 1003.5 |
| 20260505074507 | 17 | 182 | 3.2 | 12.9 | 0.00 | 0.00 | 0.00 | 70 | 1003.3 |
| 20260505073608 | 17 | 146 | 1.6 | 12.9 | 0.00 | 0.00 | 0.00 | 70 | 1003.5 |
| 20260505072707 | 17 | 166 | 1.6 | 12.9 | 0.00 | 0.00 | 0.00 | 72 | 1003.4 |
| 20260505071807 | 17 | 180 | 1.6 | 8.0 | 0.00 | 0.00 | 0.00 | 73 | 1003.4 |
| 20260505070928 | 17 | 179 | 0.0 | 3.2 | 0.00 | 0.00 | 0.00 | 74 | 1003.4 |
| 20260505070028 | 17 | 202 | 0.0 | 8.0 | 0.00 | 0.00 | 0.00 | 73 | 1003.5 |
| 20260505065407 | 17 | 193 | 0.0 | 3.2 | 0.00 | 0.00 | 0.00 | 73 | 1003.5 |
| 20260505064528 | 17 | 186 | 0.0 | 8.0 | 0.00 | 0.00 | 0.00 | 73 | 1003.3 |
| 20260505063607 | 17 | 162 | 1.6 | 12.9 | 0.00 | 0.00 | 0.00 | 73 | 1003.2 |
| 20260505062707 | 17 | 151 | 1.6 | 8.0 | 0.00 | 0.00 | 0.00 | 73 | 1003.0 |
| 20260505061807 | 17 | 170 | 0.0 | 8.0 | 0.00 | 0.00 | 0.00 | 74 | 1003.0 |
| 20260505060907 | 17 | 161 | 0.0 | 8.0 | 0.00 | 0.00 | 0.00 | 75 | 1003.1 |
| 20260505060007 | 17 | 163 | 1.6 | 8.0 | 0.00 | 0.00 | 0.00 | 74 | 1003.2 |
| 20260505055407 | 17 | 169 | 1.6 | 8.0 | 0.00 | 0.00 | 0.00 | 73 | 1003.4 |
| 20260505054507 | 17 | 170 | 1.6 | 8.0 | 0.00 | 0.00 | 0.00 | 72 | 1003.0 |
| 20260505053607 | 17 | 156 | 0.0 | 12.9 | 0.00 | 0.00 | 0.00 | 71 | 1003.3 |
| 20260505052707 | 18 | 168 | 0.0 | 12.9 | 0.00 | 0.00 | 0.00 | 70 | 1003.4 |
| 20260505051807 | 18 | 160 | 0.0 | 8.0 | 0.00 | 0.00 | 0.00 | 70 | 1003.5 |
| 20260505050906 | 18 | 168 | 0.0 | 8.0 | 0.00 | 0.00 | 0.00 | 70 | 1003.6 |
| 20260505040906 | 18 | 176 | 1.6 | 12.9 | 0.00 | 0.00 | 0.00 | 68 | 1003.8 |
| 20260505040006 | 18 | 164 | 1.6 | 12.9 | 0.00 | 0.00 | 0.00 | 68 | 1004.1 |
| 20260505035406 | 18 | 164 | 0.0 | 12.9 | 0.00 | 0.00 | 0.00 | 69 | 1003.9 |
| 20260505034506 | 18 | 136 | 0.0 | 12.9 | 0.00 | 0.00 | 0.00 | 69 | 1003.9 |
| 20260505033606 | 18 | 132 | 0.0 | 12.9 | 0.00 | 0.00 | 0.00 | 69 | 1003.8 |
| 20260505032707 | 18 | 133 | 0.0 | 3.2 | 0.00 | 0.00 | 0.00 | 72 | 1003.9 |
| 20260505031806 | 18 | 143 | 0.0 | 8.0 | 0.00 | 0.00 | 0.00 | 73 | 1003.8 |
| 20260505030906 | 17 | 158 | 0.0 | 3.2 | 0.00 | 0.00 | 0.00 | 73 | 1003.6 |
| 20260505030006 | 17 | 173 | 0.0 | 3.2 | 0.00 | 0.00 | 0.00 | 73 | 1003.6 |
| 20260505025427 | 17 | 0 | 0.0 | 0.0 | 0.00 | 0.00 | 0.00 | 74 | 1003.6 |
| 20260505024506 | 18 | 139 | 0.0 | 3.2 | 0.00 | 0.00 | 0.00 | 72 | 1003.6 |
| 20260505023606 | 18 | 170 | 0.0 | 3.2 | 0.00 | 0.00 | 0.00 | 71 | 1003.9 |
| 20260505022727 | 18 | 146 | 0.0 | 8.0 | 0.00 | 0.00 | 0.00 | 70 | 1003.7 |
| 20260505021827 | 18 | 159 | 0.0 | 3.2 | 0.00 | 0.00 | 0.00 | 70 | 1003.7 |
| 20260505020906 | 18 | 153 | 0.0 | 3.2 | 0.00 | 0.00 | 0.00 | 70 | 1003.4 |
| 20260505020006 | 18 | 136 | 0.0 | 8.0 | 0.00 | 0.00 | 0.00 | 69 | 1003.6 |
| 20260505015406 | 18 | 0 | 0.0 | 0.0 | 0.00 | 0.00 | 0.00 | 71 | 1003.7 |
| 20260505014506 | 18 | 135 | 0.0 | 8.0 | 0.00 | 0.00 | 0.00 | 69 | 1003.5 |
| 20260505013606 | 18 | 114 | 0.0 | 3.2 | 0.00 | 0.00 | 0.00 | 69 | 1003.3 |
| 20260505012706 | 18 | 131 | 0.0 | 8.0 | 0.00 | 0.00 | 0.00 | 68 | 1003.3 |
| 20260505011806 | 18 | 141 | 0.0 | 3.2 | 0.00 | 0.00 | 0.00 | 68 | 1003.2 |
| 20260505010906 | 19 | 78 | 0.0 | 3.2 | 0.00 | 0.00 | 0.00 | 66 | 1003.4 |
| 20260505010006 | 19 | 139 | 0.0 | 3.2 | 0.00 | 0.00 | 0.00 | 65 | 1003.1 |
| 20260505005406 | 19 | 155 | 0.0 | 3.2 | 0.00 | 0.00 | 0.00 | 65 | 1003.2 |
| 20260505004506 | 20 | 126 | 0.0 | 12.9 | 0.00 | 0.00 | 0.00 | 63 | 1003.2 |
| 20260505003606 | 20 | 163 | 0.0 | 3.2 | 0.00 | 0.00 | 0.00 | 63 | 1003.3 |
| 20260505002706 | 20 | 162 | 0.0 | 3.2 | 0.00 | 0.00 | 0.00 | 62 | 1003.2 |
| 20260505001806 | 20 | 187 | 0.0 | 12.9 | 0.00 | 0.00 | 0.00 | 63 | 1003.0 |
| 20260505000906 | 20 | 160 | 0.0 | 8.0 | 0.00 | 0.00 | 0.00 | 63 | 1002.9 |
| 20260505000005 | 20 | 164 | 0.0 | 8.0 | 0.00 | 0.00 | 0.00 | 62 | 1003.0 |
| 20260504235406 | 21 | 156 | 0.0 | 8.0 | 0.00 | 0.00 | 0.00 | 61 | 1003.1 |
| 20260504234506 | 21 | 159 | 1.6 | 12.9 | 0.00 | 0.00 | 0.00 | 61 | 1003.4 |
| 20260504233606 | 21 | 182 | 0.0 | 8.0 | 0.00 | 0.00 | 0.00 | 60 | 1003.0 |
| 20260504232705 | 21 | 168 | 1.6 | 12.9 | 0.00 | 0.00 | 0.00 | 59 | 1002.9 |
| 20260504231805 | 21 | 191 | 1.6 | 12.9 | 0.00 | 0.00 | 0.00 | 59 | 1003.3 |
| 20260504230905 | 21 | 183 | 0.0 | 3.2 | 0.00 | 0.00 | 0.00 | 60 | 1003.3 |
| 20260504230005 | 21 | 178 | 1.6 | 12.9 | 0.00 | 0.00 | 0.00 | 62 | 1003.5 |
| 20260504225405 | 21 | 192 | 1.6 | 16.1 | 0.00 | 0.00 | 0.00 | 62 | 1003.8 |
| 20260504224505 | 21 | 185 | 1.6 | 16.1 | 0.00 | 0.00 | 0.00 | 61 | 1003.7 |
| 20260504223605 | 21 | 168 | 1.6 | 16.1 | 0.00 | 0.00 | 0.00 | 60 | 1003.9 |
| 20260504222705 | 21 | 223 | 1.6 | 12.9 | 0.00 | 0.00 | 0.00 | 61 | 1003.8 |
| 20260504221805 | 21 | 179 | 3.2 | 16.1 | 0.00 | 0.00 | 0.00 | 60 | 1003.9 |
| 20260504220905 | 22 | 191 | 3.2 | 20.9 | 0.00 | 0.00 | 0.00 | 60 | 1004.1 |
| 20260504220026 | 22 | 196 | 3.2 | 16.1 | 0.00 | 0.00 | 0.00 | 58 | 1003.8 |
| 20260504215405 | 22 | 236 | 3.2 | 16.1 | 0.00 | 0.00 | 0.00 | 56 | 1003.9 |
| 20260504214505 | 22 | 220 | 3.2 | 16.1 | 0.00 | 0.00 | 0.00 | 55 | 1003.9 |
| 20260504213605 | 22 | 170 | 3.2 | 20.9 | 0.00 | 0.00 | 0.00 | 54 | 1003.8 |
| 20260504212705 | 23 | 210 | 3.2 | 16.1 | 0.00 | 0.00 | 0.00 | 53 | 1003.6 |
| 20260504211826 | 23 | 185 | 3.2 | 20.9 | 0.00 | 0.00 | 0.00 | 52 | 1003.5 |
| 20260504210926 | 23 | 212 | 3.2 | 16.1 | 0.00 | 0.00 | 0.00 | 54 | 1003.5 |
| 20260504210005 | 23 | 204 | 3.2 | 16.1 | 0.00 | 0.00 | 0.00 | 57 | 1003.9 |
| 20260504205426 | 23 | 193 | 3.2 | 16.1 | 0.00 | 0.00 | 0.00 | 54 | 1003.8 |
| 20260504204505 | 22 | 191 | 4.8 | 24.1 | 0.00 | 0.00 | 0.00 | 58 | 1004.4 |
| 20260504203605 | 22 | 191 | 3.2 | 16.1 | 0.00 | 0.00 | 0.00 | 60 | 1004.5 |
| 20260504202705 | 22 | 233 | 3.2 | 20.9 | 0.00 | 0.00 | 0.00 | 58 | 1004.6 |
| 20260504201805 | 22 | 196 | 4.8 | 24.1 | 0.00 | 0.00 | 0.00 | 60 | 1004.6 |
| 20260504200905 | 22 | 212 | 6.4 | 40.2 | 0.00 | 0.00 | 0.00 | 55 | 1004.9 |
| 20260504200026 | 23 | 198 | 4.8 | 40.2 | 0.00 | 0.00 | 0.00 | 52 | 1005.1 |
| 20260504195405 | 24 | 237 | 4.8 | 24.1 | 0.00 | 0.00 | 0.00 | 53 | 1004.7 |
| 20260504194526 | 25 | 251 | 4.8 | 20.9 | 0.00 | 0.00 | 0.00 | 50 | 1004.7 |
| 20260504193605 | 24 | 185 | 4.8 | 20.9 | 0.00 | 0.00 | 0.00 | 53 | 1004.7 |
| 20260504192704 | 25 | 206 | 3.2 | 24.1 | 0.00 | 0.00 | 0.00 | 52 | 1004.7 |
| 20260504191826 | 24 | 224 | 4.8 | 16.1 | 0.00 | 0.00 | 0.00 | 53 | 1004.5 |
| 20260504190905 | 24 | 188 | 3.2 | 20.9 | 0.00 | 0.00 | 0.00 | 53 | 1004.4 |
| 20260504190005 | 23 | 158 | 1.6 | 12.9 | 0.00 | 0.00 | 0.00 | 57 | 1004.6 |
| 20260504185405 | 24 | 204 | 1.6 | 12.9 | 0.00 | 0.00 | 0.00 | 54 | 1004.5 |
| 20260504184505 | 23 | 222 | 4.8 | 16.1 | 0.00 | 0.00 | 0.00 | 54 | 1004.7 |
| 20260504183604 | 23 | 221 | 3.2 | 16.1 | 0.00 | 0.00 | 0.00 | 55 | 1004.8 |
| 20260504182704 | 22 | 204 | 4.8 | 16.1 | 0.00 | 0.00 | 0.00 | 55 | 1005.0 |
| 20260504181804 | 24 | 198 | 3.2 | 16.1 | 0.00 | 0.00 | 0.00 | 54 | 1004.9 |
| 20260504180904 | 24 | 193 | 3.2 | 16.1 | 0.00 | 0.00 | 0.00 | 54 | 1005.0 |
| 20260504180005 | 24 | 201 | 1.6 | 12.9 | 0.00 | 0.00 | 0.00 | 54 | 1005.3 |
| 20260504175404 | 24 | 170 | 3.2 | 12.9 | 0.00 | 0.00 | 0.00 | 55 | 1005.0 |
| 20260504174504 | 23 | 210 | 3.2 | 12.9 | 0.00 | 0.00 | 0.00 | 55 | 1005.2 |
| 20260504173604 | 23 | 181 | 3.2 | 16.1 | 0.00 | 0.00 | 0.00 | 57 | 1005.2 |
| 20260504172704 | 23 | 178 | 1.6 | 16.1 | 0.00 | 0.00 | 0.00 | 59 | 1005.1 |
| 20260504171805 | 23 | 162 | 3.2 | 16.1 | 0.00 | 0.00 | 0.00 | 59 | 1005.3 |
| 20260504170904 | 22 | 183 | 3.2 | 16.1 | 0.00 | 0.00 | 0.00 | 58 | 1005.7 |
| 20260504150904 | 20 | 155 | 1.6 | 16.1 | 0.00 | 0.00 | 0.00 | 60 | 1007.0 |